Regional Weather Roundup
Issued by NWS Newport/Morehead, NC

Current Version | Previous Version | Text Only | Print | Product List | Glossary On
Versions: 1 2 3 4 5 6 7 8 9 10 11 12 13 14 15 16 17 18 19 20 21 22 23 24 25 26 27 28 29 30 31 32 33 34 35 36 37 38 39 40 41 42 43 44 45 46 47 48 49 50
000
ASUS42 KMHX 281510
RWRMHX
WEATHER ROUNDUP FOR EASTERN NORTH CAROLINA
NATIONAL WEATHER SERVICE NEWPORT/MOREHEAD CITY NC
1000 AM EST SUN DEC 28 2014

NOTE: "FAIR" INDICATES FEW OR NO CLOUDS BELOW 12,000 FEET
WITH NO SIGNIFICANT WEATHER AND/OR OBSTRUCTIONS TO VISIBILITY

NCZ015>017-031-032-045>047-102-103-281600-
NORTH COAST

CITY           SKY/WX    TMP DP  RH WIND       PRES   REMARKS
EDENTON        CLOUDY    58  53  83 SW9       30.08F
ELIZABETH CITY CLOUDY    60  52  74 SW9       30.08R
KITTY HAWK     CLOUDY    57  54  91 SW6       30.08R
MANTEO         CLOUDY    55  54  94 SW5       30.10R

$$

NCZ045>047-081-094-103-104-281600-
CENTRAL COAST

CITY           SKY/WX    TMP DP  RH WIND       PRES   REMARKS
FRISCO         CLOUDY    63  60  90 SW8       30.11S
SWANQUARTER      N/A     55 N/A N/A SW5       30.06S

$$

NCZ095-097-098-100-101-281600-
SOUTHERN COAST

CITY           SKY/WX    TMP DP  RH WIND       PRES   REMARKS
BEAUFORT       MOSUNNY   64  59  83 SW14      30.12S
CEDAR ISLAND     N/A     70 N/A N/A SW12G21   30.15S
JACKSONVILLE   CLOUDY    61  54  77 SW7       30.11F
PINEY ISLAND   PTSUNNY   68  57  68 SW15G22   30.10F
WILMINGTON     MOSUNNY   64  55  72 S9        30.12F


$$

NCZ011>013-027>030-043-044-078>080-089-090>093-098-281600-
COASTAL PLAIN

CITY           SKY/WX    TMP DP  RH WIND       PRES   REMARKS
AHOSKIE        CLOUDY    57  51  81 SW3       30.07R
CLINTON        DRIZZLE   55  54  96 CALM      30.11F
ELIZABETHTOWN  CLOUDY    56  51  82 CALM      30.11S
GOLDSBORO      CLOUDY    60  59  98 SW9       30.09S
GREENVILLE     CLOUDY    61  54  77 SW15      30.10F
HAVELOCK       PTSUNNY   61  52  72 SW7       30.13S
KENANSVILLE    CLOUDY    56  53  90 W3        30.13R
KINSTON        CLOUDY    59  54  82 SW10      30.11S
NEW BERN       CLOUDY    64  55  72 SW8       30.12S
RICHLANDS      CLOUDY    57  52  82 SW6       30.13R
ROCKY MOUNT    CLOUDY    61  52  72 SW10      30.08S
WASHINGTON     DRIZZLE   58  55  88 SW6       30.10R
WHITEVILLE     CLOUDY    63  55  76 S7        30.10F

$$

AMZ130-135-150-152-154-156-158-170-250-252-270-ANZ085-086-088-633-658-670-281600-
MARINE OBSERVATIONS

STATION/POSITION TIME  TEMP    WIND        PRES    WAVE   SWELL
                       AIR SEA DIR/SP/G            HT/PER HT/PER
                 (UTC) (F)     (DEG/KT/KT) (MB)    (FT/S) (FT/S)
CHESAPEAKE LIGHT 1400   53     220/ 17/ 17 1018.5
64 E VA BEACH    1500   56 53  220/ 14/ 16 1017.9    3/14   3/14
DUCK             1500   56 49  220/  7/ 10 1018.1
2 E DUCK         1500      48                N/A     2/13   2/13
10 NE DUCK       1500      50                N/A     3/13   3/13
OREGON INLET     1500   53 53  190/  9/ 10 1019.2
13E OREGON INLT  1500      53                N/A     2/13   2/13
HATTERAS CG      1500   62 54  220/  7/ 10 1019.9
DIAMOND BUOY     1500   72                 1019.7    4/14
17 S OCRACOKE    NOT AVBL
CAPE LOOKOUT     1400   65     210/  8/ 13 1020.0
BEAUFORT LAB     1500   63 54  210/  8/ 10 1018.9
30 SE NEW RIVER  1500   63 61  250/ 10/ 12 1021.0    3/15   2/15
5 SE WRIGHTSVLE  NOT AVBL
225 S CAPE HAT   1419   73 75  200/ 16/ 21 1022.7    5/13   5/13
41 SE CHARLESTON 1500   72 74  230/ 10/ 12 1021.1    3/15   3/15

$$


USA.gov is the U.S. government's official web portal to all federal, state and local government web resources and services.